TimeCDT,TemperatureF,Dew PointF,Humidity,Sea Level PressureIn,VisibilityMPH,Wind Direction,Wind SpeedMPH,Gust SpeedMPH,PrecipitationIn,Events,Conditions,WindDirDegrees,DateUTC
12:53 AM,78.1,72.0,81,29.91,10.0,SE,4.6,-,N/A,,Clear,140,2013-08-09 05:53:00
1:53 AM,75.9,73.0,91,29.90,10.0,SE,4.6,-,N/A,,Clear,140,2013-08-09 06:53:00
2:53 AM,75.0,73.0,94,29.90,9.0,SE,4.6,-,N/A,,Clear,140,2013-08-09 07:53:00
3:53 AM,73.0,73.0,100,29.91,6.0,Calm,Calm,-,N/A,,Clear,0,2013-08-09 08:53:00
4:53 AM,73.0,73.0,100,29.91,5.0,Calm,Calm,-,N/A,,Clear,0,2013-08-09 09:53:00
5:16 AM,71.6,71.6,100,29.92,1.0,SE,3.5,-,N/A,,Mist,140,2013-08-09 10:16:00
5:18 AM,71.6,71.6,100,29.92,0.5,SE,3.5,-,N/A,Fog,Fog,140,2013-08-09 10:18:00
5:25 AM,69.8,69.8,100,29.92,0.2,Calm,Calm,-,N/A,Fog,Fog,0,2013-08-09 10:25:00
5:32 AM,69.8,69.8,100,29.92,1.0,Calm,Calm,-,N/A,,Mist,0,2013-08-09 10:32:00
5:41 AM,71.6,71.6,100,29.93,0.2,Calm,Calm,-,N/A,Fog,Fog,0,2013-08-09 10:41:00
5:53 AM,71.1,71.1,100,29.92,0.2,Calm,Calm,-,N/A,Fog,Fog,0,2013-08-09 10:53:00
6:53 AM,71.1,71.1,100,29.93,0.2,Calm,Calm,-,N/A,Fog,Fog,0,2013-08-09 11:53:00
7:24 AM,71.6,71.6,100,29.95,0.2,Calm,Calm,-,N/A,Fog,Fog,0,2013-08-09 12:24:00
7:53 AM,73.0,73.0,100,29.94,0.2,SSE,4.6,-,N/A,Fog,Fog,160,2013-08-09 12:53:00
8:53 AM,75.0,75.0,100,29.96,0.5,SW,3.5,-,N/A,Fog,Fog,230,2013-08-09 13:53:00
9:00 AM,75.2,75.2,100,29.97,2.0,SSW,4.6,-,N/A,,Overcast,200,2013-08-09 14:00:00
9:08 AM,75.2,75.2,100,29.97,5.0,SSW,4.6,-,N/A,,Overcast,210,2013-08-09 14:08:00
9:40 AM,78.8,75.2,89,29.98,8.0,SSW,4.6,-,N/A,,Overcast,210,2013-08-09 14:40:00
9:53 AM,78.1,75.0,90,29.97,8.0,SW,6.9,-,N/A,,Overcast,230,2013-08-09 14:53:00
10:19 AM,80.6,75.2,84,29.99,10.0,South,4.6,-,N/A,,Mostly Cloudy,190,2013-08-09 15:19:00
10:26 AM,82.4,75.2,79,29.99,10.0,Calm,Calm,-,N/A,,Scattered Clouds,0,2013-08-09 15:26:00
10:53 AM,82.9,75.0,77,29.97,10.0,SW,3.5,-,N/A,,Scattered Clouds,220,2013-08-09 15:53:00
11:53 AM,88.0,73.9,63,29.96,10.0,SSW,6.9,-,N/A,,Clear,200,2013-08-09 16:53:00
12:53 PM,90.0,72.0,55,29.95,10.0,ENE,4.6,-,N/A,,Partly Cloudy,70,2013-08-09 17:53:00
1:53 PM,91.9,72.0,52,29.94,10.0,Calm,Calm,-,N/A,,Clear,0,2013-08-09 18:53:00
2:53 PM,96.1,71.1,44,29.91,10.0,Variable,3.5,-,N/A,,Clear,0,2013-08-09 19:53:00
3:53 PM,97.0,70.0,41,29.89,10.0,Calm,Calm,-,N/A,,Clear,0,2013-08-09 20:53:00
4:53 PM,98.1,69.1,39,29.87,10.0,Calm,Calm,-,N/A,,Clear,0,2013-08-09 21:53:00
5:53 PM,97.0,68.0,39,29.87,10.0,Calm,Calm,-,N/A,,Clear,0,2013-08-09 22:53:00
6:53 PM,98.1,69.1,39,29.86,10.0,Calm,Calm,-,N/A,,Clear,0,2013-08-09 23:53:00
7:53 PM,91.0,71.1,52,29.88,10.0,East,4.6,-,N/A,,Clear,90,2013-08-10 00:53:00
8:53 PM,87.1,71.1,59,29.91,10.0,East,4.6,-,N/A,,Clear,80,2013-08-10 01:53:00
9:53 PM,84.9,72.0,65,29.93,10.0,Calm,Calm,-,N/A,,Clear,0,2013-08-10 02:53:00
10:53 PM,84.9,72.0,65,29.95,10.0,SE,12.7,-,N/A,,Partly Cloudy,130,2013-08-10 03:53:00
11:53 PM,82.9,73.9,74,29.97,10.0,SSE,6.9,-,N/A,,Clear,150,2013-08-10 04:53:00